Portada
METAR-TAF:

METAR-TAF

Aeroports :

Bogue_Field/MCALF

Swansboro, Carolina del Nord, Estats Units d'Amèrica

latitud: 34-41-34N, longitud: 077-01-46W, altitud: 6 m

Observació

L'informe es va fer fa 55 minuts, a les 11:57 UTC
Vent 3 kt del Nord
Temperatura 24°C
Humitat 89%
Pressió 1017 hPa
Visibilitat: 16.1 km
Cel clar

METAR: KNJM 291157Z AUTO 35003KT 10SM CLR 24/22 A3004 RMK AO2 SLP174 6//// 7//// T02390217 10239 20211 53014 PNO

Hora: 08:52 (12:52 UTC)


TAF: manca

Observacions i pronòstics meteorològics de més de 4000 aeroports (METAR i TAF).

Les estacions disponibles són els punts grocs i vermells al mapa.

Posi el ratolí al punt desitjat per veure el nom de l'estació.

Feu clic per veure les observacions i els pronòstics meteorològics.

Per canviar el mapa: feu clic els botons verds amb una creu de color negre per apropar; al botó verd amb un guió per allunyar la imatge; o en les fletxes verdes per a mapes adjacents.


METAR-TAF: